Wind_Speed
9 8 5 5 4 5 1 2 0 4 3 2 4 5 7 3 4 4 1 11 26 25 21 17 14 12 12 14 15 14 16 14 14 16 17 17 17 16 17 17 19 19 19 19 20 20 21 21 21
6 3 3 2 4 3 4 2 5 4 4 7 5 2 2 1 1 4 14 13 24 25 21 19 15 12 13 15 15 14 16 13 15 15 15 16 16 16 16 17 18 18 17 19 19 19 19 20 21
2 2 3 4 3 4 4 4 5 2 6 3 3 3 2 2 1 15 6 20 25 24 21 19 16 13 14 15 15 14 17 14 15 16 16 16 16 16 16 17 18 18 18 18 18 19 20 22 22
1 4 4 4 3 3 3 5 6 5 1 1 4 4 1 2 4 9 15 24 27 24 21 19 16 14 15 15 15 15 17 15 15 15 15 15 15 15 16 17 18 17 17 18 18 19 20 20 21
4 3 4 3 2 2 2 3 6 5 2 3 2 4 0 2 3 12 21 25 28 25 22 20 17 15 15 16 15 16 17 14 15 14 13 14 15 15 16 16 17 16 17 16 18 20 20 20 21
4 3 4 2 2 1 2 4 5 3 2 3 5 5 3 4 10 17 22 24 26 25 24 21 18 16 15 16 15 15 16 15 14 14 13 14 15 15 15 16 16 15 17 16 17 18 19 20 20
5 4 4 4 3 1 4 8 4 5 4 4 8 5 2 5 13 21 23 24 23 24 24 22 19 16 15 15 16 15 16 15 14 14 13 14 15 15 16 18 16 16 17 17 17 18 18 18 19
5 4 3 2 4 4 5 6 2 6 6 2 4 5 4 7 19 24 23 22 22 23 24 23 20 18 17 16 15 15 15 15 14 15 14 15 16 16 17 18 16 17 17 17 17 17 16 17 16
3 4 2 4 6 3 4 4 2 1 4 2 4 5 2 21 25 25 22 21 23 25 24 22 22 19 18 17 16 15 15 15 14 13 13 14 15 15 17 16 15 16 16 16 15 14 14 14 14
4 4 8 4 3 4 6 3 7 2 1 3 3 2 7 26 29 23 19 18 25 27 26 25 23 22 20 18 17 16 16 15 14 13 13 13 14 15 16 16 15 16 16 15 13 13 13 12 15
3 5 4 3 3 3 6 2 5 7 4 7 9 6 11 17 21 21 20 26 30 29 27 25 25 25 24 21 20 18 18 17 16 15 15 15 15 16 16 15 15 15 13 12 12 13 13 14 15
2 2 4 2 2 3 6 6 3 7 6 4 8 5 11 12 19 23 23 29 31 31 30 27 26 27 27 24 23 21 20 19 19 18 17 18 17 17 16 15 15 13 12 12 12 13 14 16 16
2 3 3 1 1 2 2 2 4 7 8 5 3 8 12 14 21 23 23 24 31 32 33 31 28 28 27 29 26 24 23 22 21 20 19 19 19 19 18 17 16 14 13 12 13 13 14 15 16
2 2 1 1 1 2 0 1 1 4 2 3 3 8 9 11 22 17 21 28 32 34 36 35 32 31 29 29 29 27 25 25 24 23 22 21 21 20 21 20 19 17 15 14 12 13 15 16 17
2 4 2 2 1 1 2 6 8 5 3 3 7 7 7 11 10 24 34 33 37 38 35 37 36 33 32 30 32 31 27 27 27 27 25 24 23 23 22 22 21 19 17 16 15 15 15 15 17
4 5 2 4 2 1 3 8 4 3 4 9 7 8 7 9 21 27 31 33 35 35 36 37 38 37 35 32 31 33 32 30 29 30 29 28 27 25 24 23 24 21 18 18 18 18 18 16 16
6 3 3 7 4 1 3 7 4 2 4 4 5 7 8 9 14 30 33 35 34 36 38 38 39 40 40 35 32 33 34 33 33 33 33 33 31 29 26 25 25 23 22 20 20 19 18 18 17
5 4 2 4 1 0 1 11 8 7 4 7 7 8 8 9 14 30 31 37 37 37 36 39 39 41 41 36 31 29 30 31 34 35 36 35 35 33 29 27 28 27 25 23 23 21 19 19 19
5 3 4 2 1 2 6 8 14 7 6 9 9 10 10 11 19 21 21 24 31 36 37 38 40 40 40 33 30 29 30 31 32 34 38 37 37 37 34 32 32 31 30 30 27 25 24 22 22
4 3 2 3 1 3 5 10 12 9 8 8 9 10 11 8 8 10 18 20 27 33 39 40 42 41 42 37 35 30 31 29 35 34 35 38 39 39 40 38 38 37 36 34 33 33 29 22 27
3 5 4 6 3 2 6 8 7 5 4 6 9 10 9 12 12 9 15 22 24 30 34 39 43 44 44 42 32 29 25 27 30 33 34 38 39 41 43 43 42 40 41 41 40 39 37 31 33
6 8 5 3 3 3 2 6 6 5 8 7 11 10 9 8 8 8 12 19 17 24 28 33 37 40 42 40 34 36 34 28 32 34 40 39 39 41 42 43 43 44 44 45 45 44 43 38 31
6 6 6 3 3 1 3 2 7 3 5 10 9 7 7 6 8 8 8 12 10 9 15 23 28 32 38 40 36 34 31 30 28 33 35 38 37 38 40 42 42 44 45 48 47 46 45 47 36
10 7 7 4 2 3 7 7 5 4 7 4 2 4 7 8 7 7 7 7 4 2 4 11 20 27 31 31 31 31 30 30 31 29 32 36 36 35 35 37 38 40 41 41 46 48 46 46 37
3 7 2 2 1 6 3 3 5 6 10 6 8 9 8 6 6 7 8 11 11 9 4 6 13 16 21 24 25 28 28 30 32 30 30 30 30 32 32 29 29 33 37 40 42 39 42 46 43
7 8 6 8 4 3 2 7 6 8 4 5 3 5 6 6 4 5 6 8 10 10 8 4 8 12 15 19 22 23 25 26 26 26 22 20 20 20 22 25 27 30 33 36 38 39 39 39 42
6 7 5 7 2 3 5 7 8 7 4 2 4 3 4 3 1 3 5 7 8 9 8 5 6 7 9 11 13 16 17 18 18 15 14 14 14 15 17 19 19 22 26 29 31 32 34 35 38
7 8 3 2 3 3 5 6 7 2 6 3 4 5 5 5 5 5 6 8 7 6 6 5 6 7 7 8 8 9 10 11 11 11 12 12 13 15 16 18 19 20 20 22 24 28 30 30 32
3 4 2 4 5 6 2 7 7 8 6 7 4 2 4 5 4 4 4 4 4 4 3 3 5 6 6 5 5 5 5 6 7 8 10 12 14 15 16 17 17 18 19 19 21 25 26 28 29
3 10 7 5 5 3 3 12 3 4 7 7 5 3 4 3 3 3 3 4 5 6 5 4 5 7 6 3 2 3 4 6 8 8 9 11 12 14 14 15 17 18 19 20 21 23 26 28 29
Wind_Direction
321 325 333 21 59 67 178 212 290 133 162 175 123 143 187 129 168 203 74 161 160 156 157 155 158 148 140 131 124 123 118 114 112 106 100 94 93 93 92 95 94 87 85 90 87 83 80 80 82
328 339 46 74 89 76 267 257 197 187 153 126 93 121 64 115 111 104 132 154 164 159 158 161 163 154 147 136 132 127 124 119 113 115 106 100 101 100 98 98 94 88 93 91 84 83 82 82 81
336 16 84 93 109 163 197 205 181 143 152 148 108 64 116 166 360 157 147 157 165 163 163 166 164 160 153 142 139 135 128 122 116 119 109 105 104 103 102 103 97 90 96 90 85 87 86 86 84
152 26 40 87 186 225 201 174 169 129 343 161 132 72 348 288 191 180 156 162 167 168 167 169 168 164 158 149 147 140 133 133 126 124 120 113 111 108 106 107 102 98 99 94 94 92 91 91 93
54 58 64 88 268 272 251 148 153 141 162 144 152 196 7 88 175 170 161 167 171 170 170 171 170 167 162 157 155 147 140 141 137 133 131 120 120 116 113 111 105 99 105 104 96 98 95 95 95
43 90 70 171 263 316 106 141 129 141 170 157 84 140 180 164 162 167 167 170 177 172 172 173 173 171 168 164 158 152 149 149 145 144 134 127 123 119 117 117 112 105 111 108 104 99 105 112 111
113 82 174 153 188 86 174 148 158 176 170 222 155 133 268 193 174 169 170 173 180 177 175 177 177 175 172 169 165 160 154 154 149 143 146 137 132 128 126 124 119 112 116 113 111 105 112 116 116
105 90 116 207 184 220 163 164 162 162 220 70 160 179 225 198 171 170 173 177 181 182 183 182 182 180 178 175 173 168 164 160 156 153 153 146 142 139 132 130 127 121 119 117 113 116 122 122 119
119 65 169 202 155 215 141 157 149 268 123 249 197 148 296 161 166 168 171 182 185 187 187 188 188 188 185 180 179 177 171 168 165 162 159 151 144 141 136 138 134 124 122 119 120 129 130 130 126
87 121 211 201 200 185 174 159 162 143 134 250 277 130 145 158 164 168 175 182 186 190 193 193 192 194 191 188 185 183 180 177 172 169 163 158 151 146 145 146 142 135 132 130 132 132 134 133 132
143 186 202 226 175 156 156 162 153 127 250 223 206 173 161 160 174 181 189 191 192 193 194 194 196 199 196 194 191 189 188 185 180 177 172 166 160 156 156 156 154 152 151 141 141 141 142 141 139
151 208 172 167 147 123 153 131 197 179 213 296 235 170 167 171 183 192 198 198 196 195 197 198 201 198 202 200 198 196 194 193 190 186 182 178 173 168 167 169 164 163 157 153 152 152 150 149 145
176 198 167 22 66 86 114 174 217 251 249 284 82 163 181 189 193 202 203 203 202 201 202 201 199 201 203 206 202 203 202 201 199 196 192 191 185 180 177 180 177 174 170 167 160 161 159 158 154
192 105 94 90 10 345 250 242 128 248 312 183 185 211 201 198 199 196 202 208 208 208 208 206 205 207 204 209 209 211 211 209 207 205 202 200 197 192 187 188 188 186 182 175 171 169 167 164 162
88 117 2 237 173 271 159 303 236 236 357 213 234 237 226 234 218 211 210 212 214 215 213 212 212 210 209 206 212 212 217 215 213 213 211 209 208 204 202 194 195 194 188 186 183 179 175 172 167
68 52 86 316 144 287 130 267 269 346 193 240 233 246 240 240 232 229 226 224 222 220 219 219 218 217 214 211 212 215 217 217 221 219 218 216 217 216 212 205 201 199 195 192 189 185 179 176 170
16 176 179 312 223 130 151 265 270 103 85 294 257 250 247 258 256 242 235 232 229 227 226 224 222 221 220 217 215 217 218 218 219 220 222 220 219 221 218 214 210 207 203 198 196 189 190 179 176
173 182 204 233 249 184 203 266 272 275 294 272 277 271 259 249 244 245 239 237 234 232 230 230 227 224 223 217 214 213 219 221 225 222 224 223 222 222 219 216 217 212 208 204 203 199 190 187 185
126 135 177 225 287 203 233 265 277 283 286 272 264 261 257 246 259 259 251 246 239 234 230 227 227 225 219 208 207 209 210 215 223 232 229 227 225 223 221 220 219 215 213 213 208 196 195 186 189
117 132 227 289 38 157 329 274 271 267 255 238 242 253 246 264 272 265 264 250 238 233 229 226 226 224 223 210 211 212 215 217 225 228 233 232 228 226 224 224 222 218 215 216 213 206 192 193 192
158 164 188 223 354 66 334 283 265 292 264 276 263 250 265 246 271 266 261 257 249 235 228 226 224 223 224 218 206 210 209 216 217 222 230 234 234 232 228 227 228 223 220 220 217 213 207 198 200
191 200 165 173 94 237 18 285 293 273 299 300 281 266 267 292 263 256 269 271 256 246 234 230 227 222 223 216 205 208 210 212 221 221 229 233 234 232 231 230 228 230 226 223 224 220 218 211 198
217 134 150 105 117 51 321 331 270 347 292 268 266 309 316 321 301 303 301 300 284 261 240 234 227 222 221 215 207 208 215 222 230 224 229 233 229 231 233 232 230 230 231 229 226 221 217 220 212
147 79 53 61 93 287 199 176 257 211 218 276 268 349 336 329 356 0 3 15 29 9 223 218 214 217 218 210 207 210 216 222 226 228 230 233 232 229 230 233 232 232 231 230 231 232 226 221 217
92 97 18 345 3 232 338 166 244 241 240 228 285 308 317 337 17 19 19 25 34 40 75 166 189 192 202 203 204 211 216 224 231 234 231 233 233 232 233 239 238 235 238 238 237 233 231 226 223
185 159 164 197 199 242 58 233 254 236 324 276 296 313 322 345 6 29 23 28 44 46 54 106 168 173 191 202 209 216 222 231 234 236 235 235 237 241 248 252 253 252 247 243 240 240 241 236 230
207 212 169 105 36 64 215 283 291 264 225 54 2 359 352 274 160 36 39 42 45 56 59 88 133 153 177 195 204 212 218 224 230 231 237 247 255 259 266 266 264 263 259 252 246 245 245 242 245
162 155 78 4 139 245 264 274 226 152 198 123 22 15 356 16 47 41 28 23 37 45 64 83 111 135 151 167 183 196 210 224 235 246 253 260 263 267 267 268 265 263 260 253 250 250 247 248 248
135 182 137 136 168 187 231 247 208 212 155 145 132 83 59 42 32 32 24 28 45 59 81 94 107 114 119 136 158 175 196 223 235 250 264 271 271 270 269 267 266 263 258 256 250 249 251 250 250
310 200 161 163 224 246 167 257 7 183 155 142 137 75 60 55 50 48 72 66 75 86 88 95 99 100 96 99 132 182 207 239 248 250 263 271 276 275 273 268 266 262 260 259 256 255 255 254 252
Height
791 790 790 792 822 834 840 830 823 825 824 817 819 826 828 825 830 846 824 826 829 832 837 840 842 844 846 847 848 849 850 851 851 852 853 854 855 855 855 855 855 856 855 856 856 856 856 856 856
790 791 792 806 835 848 846 827 824 821 818 821 819 822 824 827 822 824 825 827 831 834 837 840 843 845 847 848 850 851 852 853 853 854 855 856 857 857 858 858 858 858 859 859 858 859 859 859 859
791 792 800 822 846 844 841 824 822 818 821 817 822 821 823 825 823 822 823 826 831 835 839 842 844 846 848 850 851 852 853 854 855 857 857 858 859 859 860 861 861 861 861 861 862 863 862 862 863
791 794 808 826 827 820 819 819 820 820 816 816 819 824 822 822 822 822 824 826 832 836 840 843 845 847 849 851 852 853 855 856 857 858 859 860 861 861 862 863 863 864 864 864 865 865 865 866 867
792 803 827 831 824 819 817 817 821 820 819 818 817 826 824 821 822 824 824 828 831 836 840 844 846 848 850 852 854 855 856 857 859 860 861 862 862 863 863 865 866 866 867 868 869 868 869 869 870
803 810 834 836 825 815 814 817 818 819 818 820 824 827 824 820 822 825 826 829 834 836 841 844 847 849 851 853 855 856 858 859 860 861 862 863 864 865 865 867 868 869 870 871 871 871 872 872 873
806 821 829 827 824 816 813 817 818 821 820 817 818 830 823 821 821 825 828 831 835 839 841 844 847 849 851 853 855 857 859 860 861 863 863 864 865 866 867 868 870 871 872 873 873 873 874 875 876
807 818 826 825 829 819 812 814 812 817 820 814 814 826 824 817 820 825 829 832 836 840 843 845 848 850 852 854 856 858 860 861 862 863 864 865 866 867 869 870 872 872 873 874 875 876 876 878 878
802 827 833 821 825 813 815 812 813 812 815 813 812 814 813 813 820 826 829 833 835 838 842 845 848 851 852 854 856 858 860 861 863 864 865 867 868 869 871 872 873 875 875 876 877 878 879 880 881
810 829 822 811 810 809 812 809 813 815 816 815 813 813 813 815 819 823 827 829 832 834 839 843 847 850 852 854 856 858 860 861 863 865 866 868 869 870 872 873 874 876 877 877 878 880 881 882 883
809 820 811 805 804 804 809 810 810 816 822 814 813 811 815 816 820 822 824 826 827 832 836 840 844 848 851 854 855 858 860 862 863 865 867 869 870 872 873 874 876 877 877 878 880 881 883 884 885
807 806 807 804 803 803 809 810 813 815 808 806 806 808 812 814 816 818 821 823 826 829 833 837 841 845 849 852 854 856 859 861 863 865 867 868 870 872 873 875 877 878 880 880 882 883 884 885 887
808 806 804 805 805 805 805 808 811 811 805 805 805 807 810 811 812 816 819 823 826 828 830 834 838 842 846 848 852 855 857 860 862 865 867 869 870 871 873 875 877 879 880 882 883 885 886 887 888
803 806 806 807 808 808 808 810 808 804 803 803 807 808 809 809 809 814 817 819 822 825 827 830 834 838 842 845 848 851 855 858 861 864 866 868 870 872 873 874 876 878 880 882 885 886 887 888 889
807 808 808 810 810 812 811 815 812 803 803 804 808 808 809 809 812 810 809 813 817 820 825 827 830 834 838 842 845 848 851 854 858 861 864 867 869 871 872 874 876 878 880 882 884 886 888 890 891
814 819 825 815 815 813 812 828 804 803 804 806 807 808 807 806 806 808 808 810 814 818 820 824 827 831 834 838 841 844 847 850 854 857 860 863 867 869 871 873 875 877 879 881 883 885 886 889 892
828 832 828 824 819 816 817 819 804 804 804 804 806 808 806 804 802 802 803 804 807 811 815 818 821 824 828 833 837 840 843 846 849 852 855 858 862 865 869 872 874 876 878 880 882 883 886 888 891
826 826 828 828 818 819 820 821 810 807 803 805 806 805 804 801 796 792 794 797 800 804 808 812 815 819 824 829 834 837 839 842 844 847 850 854 857 861 864 867 871 874 876 878 880 882 885 887 889
816 821 821 820 818 818 822 824 807 805 806 804 801 801 798 795 783 787 789 791 794 797 801 803 808 811 817 824 828 832 833 836 839 842 845 848 852 855 858 862 864 868 871 873 876 879 880 884 886
817 822 823 820 818 818 823 821 810 805 800 793 791 792 791 787 782 782 784 784 785 786 789 794 798 803 808 814 819 825 829 831 834 837 840 843 846 848 851 853 856 858 863 867 869 872 875 878 882
819 825 824 825 822 822 828 823 809 797 795 790 787 785 784 782 780 778 776 776 777 778 781 784 789 794 799 805 815 819 824 827 830 832 835 836 839 841 842 845 849 852 854 858 860 864 864 870 875
825 819 818 819 827 839 831 841 816 797 797 790 783 780 779 781 778 773 772 771 772 772 775 778 783 787 792 799 806 811 814 818 821 823 827 830 832 834 836 839 841 845 847 849 850 853 858 860 864
813 817 819 821 835 835 837 844 815 806 797 787 775 778 777 778 778 772 772 770 769 769 770 774 778 781 786 791 798 804 809 813 816 819 822 825 827 829 830 832 834 837 840 840 842 846 849 850 854
815 821 831 842 843 846 836 831 818 804 792 781 774 775 778 779 777 774 772 770 768 767 767 770 773 778 783 788 794 799 804 808 812 815 818 820 822 825 827 829 830 832 834 836 835 838 842 845 846
810 821 846 847 854 840 840 833 795 787 783 784 779 779 778 777 776 776 775 772 770 769 768 770 772 776 781 786 791 795 800 804 808 812 814 816 818 820 823 825 826 826 830 830 832 834 835 835 837
814 814 834 849 853 833 840 827 796 782 780 782 779 782 779 777 777 777 776 774 772 773 774 774 775 777 781 785 789 794 798 801 805 808 811 812 815 817 820 822 824 825 825 827 827 829 831 834 835
811 814 804 838 898 860 829 810 788 774 776 777 780 782 783 780 779 779 777 776 776 775 776 777 778 779 783 787 791 794 798 801 804 806 809 811 813 815 817 817 818 820 821 823 824 825 826 828 830
790 793 817 834 852 850 818 812 790 767 771 776 780 781 780 777 777 777 777 778 777 777 777 780 779 780 782 786 789 792 796 800 802 805 807 809 810 811 812 814 814 816 817 818 819 820 822 823 825
795 797 800 805 815 818 832 798 780 772 773 779 777 776 776 777 779 780 780 781 780 780 780 781 781 782 784 786 789 791 795 798 800 802 805 807 808 808 808 810 810 812 813 815 815 815 817 817 819
779 780 787 802 812 824 820 771 772 772 777 777 775 775 775 777 779 780 780 781 780 780 782 783 783 782 784 788 790 791 793 796 798 797 800 803 803 804 805 805 806 807 808 809 811 811 813 813 813